When you browse on this site, cookies collect data to enhance your experience and personalize the content and advertising you see.
Visit our Privacy Policy to learn more. By continuing to use the site, you agree to this use of cookies and data.
  • In Österreich
  • Länderverzeichnis
  • Für 7 Tage
  • Wassertemperatur
  • Wetterkarte
  • News
  • Widgets
  • user-avatar
    Anmelden

    Stündliche Wetter La Paz

    Heute, 28 Februar, Freitag

    Zeit Temperatur Niederschläge Wind Luftdruck Luftfeuchtigkeit
    00:00 +8°C° 0 mm 1 m/S 475 mmHg 90%
    01:00 +8°C° 0 mm 1 m/S 474 mmHg 91%
    02:00 +8°C° 0 mm 1 m/S 474 mmHg 91%
    03:00 +8°C° 0 mm 1 m/S 474 mmHg 92%
    04:00 +6°C° 0 mm 0 m/S 473 mmHg 92%
    05:00 +7°C° 0 mm 0 m/S 474 mmHg 90%
    06:00 +7°C° 0 mm 0 m/S 475 mmHg 88%
    07:00 +8°C° 0 mm 0 m/S 475 mmHg 86%
    08:00 +10°C° 0.1 mm 1 m/S 476 mmHg 82%
    09:00 +11°C° 0.1 mm 1 m/S 477 mmHg 77%
    10:00 +12°C° 0.1 mm 1 m/S 477 mmHg 73%
    11:00 +12°C° 0.5 mm 2 m/S 477 mmHg 73%
    12:00 +13°C° 0.5 mm 2 m/S 477 mmHg 72%
    13:00 +12°C° 0.5 mm 3 m/S 477 mmHg 72%
    14:00 +13°C° 0.6 mm 2 m/S 476 mmHg 72%
    15:00 +13°C° 0.6 mm 2 m/S 475 mmHg 73%
    16:00 +13°C° 0.6 mm 2 m/S 475 mmHg 73%
    17:00 +12°C° 0.2 mm 2 m/S 475 mmHg 78%
    18:00 +10°C° 0.2 mm 3 m/S 474 mmHg 83%
    19:00 +8°C° 0.2 mm 3 m/S 474 mmHg 87%
    20:00 +8°C° 0.1 mm 3 m/S 474 mmHg 88%
    21:00 +8°C° 0.1 mm 3 m/S 475 mmHg 89%
    22:00 +8°C° 0.1 mm 3 m/S 475 mmHg 90%
    23:00 +7°C° 0.1 mm 2 m/S 475 mmHg 90%

    Morgen, 29 Februar, Samstag

    Zeit Temperatur Niederschläge Wind Luftdruck Luftfeuchtigkeit
    00:00 +7°C° 0.1 mm 2 m/S 475 mmHg 91%
    01:00 +7°C° 0.1 mm 2 m/S 475 mmHg 91%
    02:00 +6°C° 0 mm 2 m/S 474 mmHg 91%
    03:00 +6°C° 0 mm 2 m/S 474 mmHg 92%
    04:00 +6°C° 0 mm 2 m/S 474 mmHg 92%
    05:00 +7°C° 0 mm 1 m/S 474 mmHg 88%
    06:00 +8°C° 0 mm 1 m/S 475 mmHg 85%
    07:00 +9°C° 0 mm 1 m/S 476 mmHg 82%
    08:00 +9°C° 0 mm 2 m/S 477 mmHg 77%
    09:00 +10°C° 0 mm 2 m/S 478 mmHg 72%
    10:00 +13°C° 0 mm 2 m/S 479 mmHg 67%
    11:00 +12°C° 0.4 mm 3 m/S 478 mmHg 68%
    12:00 +12°C° 0.4 mm 3 m/S 478 mmHg 68%
    13:00 +13°C° 0.4 mm 4 m/S 477 mmHg 69%
    14:00 +12°C° 0.2 mm 4 m/S 477 mmHg 70%
    15:00 +12°C° 0.2 mm 4 m/S 476 mmHg 70%
    16:00 +11°C° 0.2 mm 4 m/S 475 mmHg 71%
    17:00 +10°C° 0.1 mm 4 m/S 475 mmHg 76%
    18:00 +8°C° 0.1 mm 4 m/S 475 mmHg 81%
    19:00 +8°C° 0.1 mm 3 m/S 474 mmHg 85%
    20:00 +7°C° 0.1 mm 3 m/S 475 mmHg 86%
    21:00 +7°C° 0.1 mm 3 m/S 475 mmHg 86%
    22:00 +7°C° 0.1 mm 3 m/S 476 mmHg 86%
    23:00 +7°C° 0.1 mm 3 m/S 475 mmHg 87%

    übermorgen, 1 März, Sonntag

    Zeit Temperatur Niederschläge Wind Luftdruck Luftfeuchtigkeit
    00:00 +6°C° 0.1 mm 2 m/S 475 mmHg 88%
    01:00 +6°C° 0.1 mm 2 m/S 475 mmHg 89%
    02:00 +6°C° 0.1 mm 2 m/S 474 mmHg 89%
    03:00 +6°C° 0.1 mm 2 m/S 474 mmHg 89%
    04:00 +6°C° 0.1 mm 2 m/S 474 mmHg 89%
    05:00 +6°C° 0 mm 2 m/S 474 mmHg 88%
    06:00 +7°C° 0 mm 1 m/S 475 mmHg 86%
    07:00 +7°C° 0 mm 1 m/S 475 mmHg 85%
    08:00 +8°C° 0 mm 1 m/S 476 mmHg 79%
    09:00 +10°C° 0 mm 1 m/S 477 mmHg 74%
    10:00 +11°C° 0 mm 1 m/S 478 mmHg 69%
    11:00 +10°C° 0 mm 2 m/S 477 mmHg 69%
    12:00 +11°C° 0 mm 3 m/S 477 mmHg 69%
    13:00 +11°C° 0 mm 3 m/S 477 mmHg 69%
    14:00 +11°C° 0 mm 3 m/S 476 mmHg 69%
    15:00 +11°C° 0 mm 3 m/S 476 mmHg 69%
    16:00 +11°C° 0 mm 3 m/S 475 mmHg 69%
    17:00 +10°C° 0 mm 3 m/S 475 mmHg 74%
    18:00 +8°C° 0 mm 3 m/S 474 mmHg 78%
    19:00 +7°C° 0 mm 3 m/S 474 mmHg 83%
    20:00 +7°C° 0 mm 2 m/S 474 mmHg 83%
    21:00 +6°C° 0 mm 2 m/S 474 mmHg 83%
    22:00 +7°C° 0 mm 1 m/S 474 mmHg 84%
    23:00 +7°C° 0 mm 1 m/S 474 mmHg 84%

    2 März, Montag

    Zeit Temperatur Niederschläge Wind Luftdruck Luftfeuchtigkeit
    00:00 +5°C° 0 mm 2 m/S 473 mmHg 84%
    01:00 +5°C° 0 mm 2 m/S 473 mmHg 84%
    02:00 +5°C° 0 mm 2 m/S 473 mmHg 86%
    03:00 +5°C° 0 mm 2 m/S 473 mmHg 88%
    04:00 +4°C° 0 mm 2 m/S 473 mmHg 89%
    05:00 +6°C° 0 mm 1 m/S 473 mmHg 86%
    06:00 +6°C° 0 mm 1 m/S 474 mmHg 84%
    07:00 +7°C° 0 mm 1 m/S 474 mmHg 81%
    08:00 +9°C° 0 mm 1 m/S 475 mmHg 74%
    09:00 +10°C° 0 mm 1 m/S 476 mmHg 68%
    10:00 +12°C° 0 mm 1 m/S 477 mmHg 62%
    11:00 +12°C° 0.1 mm 2 m/S 477 mmHg 63%
    12:00 +13°C° 0.1 mm 2 m/S 477 mmHg 65%
    13:00 +12°C° 0.1 mm 3 m/S 476 mmHg 66%
    14:00 +12°C° 0.6 mm 3 m/S 476 mmHg 68%
    15:00 +11°C° 0.6 mm 3 m/S 475 mmHg 70%
    16:00 +11°C° 0.6 mm 3 m/S 474 mmHg 73%
    17:00 +10°C° 0.4 mm 2 m/S 474 mmHg 76%
    18:00 +9°C° 0.4 mm 2 m/S 474 mmHg 80%
    19:00 +9°C° 0.4 mm 1 m/S 475 mmHg 83%
    20:00 +7°C° 1.1 mm 2 m/S 474 mmHg 86%
    21:00 +7°C° 1.1 mm 2 m/S 474 mmHg 89%
    22:00 +5°C° 1.1 mm 3 m/S 474 mmHg 91%
    23:00 +6°C° 0.1 mm 2 m/S 474 mmHg 90%

    3 März, Dienstag

    Zeit Temperatur Niederschläge Wind Luftdruck Luftfeuchtigkeit
    00:00 +7°C° 0.1 mm 1 m/S 474 mmHg 90%
    01:00 +7°C° 0.1 mm 1 m/S 474 mmHg 89%
    02:00 +7°C° 0.2 mm 1 m/S 473 mmHg 89%
    03:00 +7°C° 0.2 mm 1 m/S 473 mmHg 89%
    04:00 +7°C° 0.2 mm 1 m/S 473 mmHg 89%
    05:00 +8°C° 0.2 mm 1 m/S 474 mmHg 88%
    06:00 +8°C° 0.2 mm 1 m/S 474 mmHg 87%
    07:00 +8°C° 0.2 mm 1 m/S 475 mmHg 86%
    08:00 +9°C° 0.2 mm 1 m/S 475 mmHg 82%
    09:00 +10°C° 0.2 mm 1 m/S 476 mmHg 78%
    10:00 +11°C° 0.2 mm 1 m/S 476 mmHg 74%
    11:00 +10°C° 0.4 mm 2 m/S 476 mmHg 73%
    12:00 +12°C° 0.4 mm 2 m/S 476 mmHg 71%
    13:00 +13°C° 0.4 mm 2 m/S 476 mmHg 70%
    14:00 +12°C° 0.8 mm 2 m/S 475 mmHg 71%
    15:00 +12°C° 0.8 mm 2 m/S 474 mmHg 72%
    16:00 +12°C° 0.8 mm 2 m/S 474 mmHg 73%
    17:00 +10°C° 0.6 mm 2 m/S 474 mmHg 78%
    18:00 +9°C° 0.6 mm 3 m/S 473 mmHg 83%
    19:00 +7°C° 0.6 mm 3 m/S 473 mmHg 88%
    20:00 +7°C° 0 mm 3 m/S 473 mmHg 89%
    21:00 +7°C° 0 mm 3 m/S 473 mmHg 90%
    22:00 +5°C° 0 mm 3 m/S 474 mmHg 91%
    23:00 +6°C° 0 mm 2 m/S 474 mmHg 90%

    4 März, Mittwoch

    Zeit Temperatur Niederschläge Wind Luftdruck Luftfeuchtigkeit
    00:00 +6°C° 0 mm 2 m/S 474 mmHg 88%
    01:00 +6°C° 0 mm 2 m/S 474 mmHg 87%
    02:00 +6°C° 0 mm 2 m/S 473 mmHg 87%
    03:00 +6°C° 0 mm 2 m/S 473 mmHg 88%
    04:00 +5°C° 0 mm 2 m/S 473 mmHg 88%
    05:00 +6°C° 0 mm 2 m/S 474 mmHg 86%
    06:00 +6°C° 0 mm 2 m/S 474 mmHg 84%
    07:00 +7°C° 0 mm 2 m/S 475 mmHg 83%
    08:00 +8°C° 0 mm 2 m/S 476 mmHg 78%
    09:00 +9°C° 0 mm 2 m/S 477 mmHg 72%
    10:00 +10°C° 0 mm 2 m/S 478 mmHg 67%
    11:00 +12°C° 0.3 mm 2 m/S 477 mmHg 67%
    12:00 +12°C° 0.3 mm 2 m/S 477 mmHg 67%
    13:00 +12°C° 0.3 mm 3 m/S 477 mmHg 67%
    14:00 +11°C° 0.6 mm 3 m/S 476 mmHg 69%
    15:00 +11°C° 0.6 mm 3 m/S 475 mmHg 71%
    16:00 +11°C° 0.6 mm 3 m/S 475 mmHg 73%
    17:00 +9°C° 0.2 mm 3 m/S 474 mmHg 76%
    18:00 +8°C° 0.2 mm 3 m/S 474 mmHg 80%
    19:00 +7°C° 0.2 mm 3 m/S 474 mmHg 83%
    20:00 +7°C° 0 mm 3 m/S 474 mmHg 84%
    21:00 +7°C° 0 mm 3 m/S 475 mmHg 84%
    22:00 +5°C° 0 mm 3 m/S 475 mmHg 85%
    23:00 +6°C° 0 mm 2 m/S 475 mmHg 85%
    Mehr zeigen